Simultaneous Nadir Overpasses (SNOs) Predictions

Prediction of SNOs between AQUA and METOP-B Satellite Orbit:

Table of predicted SNOs for the next 14.0 days since TLE Epoch: 10/9/2021
Index Date (AQUA) Time (AQUA) Lat,Lon (AQUA) SZA (AQUA ) Date (METOP-B) Time (METOP-B) Lat,Lon (METOP-B) SZA (METOP-B ) Distance(km) Time Diff (sec)
1 10/10/2021 14:47:35 73.74, -47.51 80.55 10/10/2021 14:47:00 73.73, -47.56 80.54 1.84 35
2 10/10/2021 15:37:02 -73.81, 119.99 99.38 10/10/2021 15:37:41 -73.79, 119.91 99.39 3.01 39
3 10/13/2021 10:21:49 73.76, 18.89 81.62 10/13/2021 10:21:22 73.74, 18.86 81.60 2.70 27
4 10/13/2021 11:11:16 -73.82,-173.60 98.31 10/13/2021 11:12:03 -73.80,-173.66 98.33 2.99 47
5 10/16/2021 05:06:25 -73.18, -81.07 97.95 10/16/2021 05:05:18 -73.13, -83.45 97.97 76.93 67
6 10/16/2021 05:56:03 73.74, 85.39 82.64 10/16/2021 05:55:45 73.74, 85.27 82.64 3.56 18
7 10/16/2021 06:45:31 -73.85,-107.22 97.24 10/16/2021 06:46:25 -73.86,-107.13 97.24 2.94 54
8 10/19/2021 00:40:46 -73.53, -15.36 96.57 10/19/2021 00:39:34 -73.48, -16.26 96.60 28.95 72
9 10/19/2021 01:30:18 73.78, 151.74 83.70 10/19/2021 01:30:07 73.79, 151.79 83.71 1.92 11
10 10/19/2021 02:19:45 -73.84, -40.75 96.23 10/19/2021 02:20:48 -73.86, -40.72 96.21 2.36 63
11 10/21/2021 20:15:03 -73.74, 50.64 95.35 10/21/2021 20:13:51 -73.73, 50.72 95.36 2.88 72
12 10/21/2021 21:04:31 73.78,-141.82 84.71 10/21/2021 21:04:29 73.79,-141.81 84.71 0.35 2



Historial Predications of SNOs between AQUA and METOP-B
